Location: Newark
(42.3578°N, 83.0683°W)
Time: 09:43:04
(UTC+00:00)

Hubble Space Telescope - Visible Passes

Search period start: 08 April 2020 00:00
Search period end: 18 April 2020 00:00
Orbit: 536 x 540 km, 28.5° (Epoch: 07 April)

Date Brightness Start Highest point End Pass type
(mag) Time Alt. Az. Time Alt. Az. Time Alt. Az.
09 Apr 3.0 01:30:50 10° S 01:31:55 11° S 01:31:55 11° S visible
10 Apr 3.0 01:19:48 10° SSW 01:21:11 11° S 01:21:59 11° SSE visible
11 Apr 3.0 01:08:55 10° SSW 01:10:23 12° S 01:11:51 10° SSE visible
12 Apr 3.0 00:58:09 10° SSW 00:59:35 12° S 01:01:01 10° SSE visible
13 Apr 3.1 00:47:29 10° SSW 00:48:47 11° S 00:50:05 10° SSE visible
